{"data":{"norad_id":52704,"epoch":"2026-09-19T18:36:05.653152Z","epoch_age_seconds":129165,"freshness":"FRESH","line1":"1 52704U 22053BA  26262.77506543  .00000421  00000+0  22985-4 0  9991","line2":"2 52704  53.1608 330.2845 0001206  84.3411 275.7729 15.35393440240785","mean_motion":15.3539344,"eccentricity":0.0001206,"inclination_deg":53.1608,"raan_deg":330.2845,"arg_perigee_deg":84.3411,"mean_anomaly_deg":275.7729,"bstar":2.2985e-5,"rev_number":24078,"period_min":93.78703610978,"perigee_km":458.92746992507,"apogee_km":460.57676878066,"semimajor_km":6837.8891193529,"source":"CELESTRAK","updated_at":"2026-09-20T09:00:40.109373Z"}}